User: anonymous   Login
Location: Unspecified
(0.0000°N, 0.0000°E)
Time: 06:03:59
(UTC+00:00)
Language:

Tiros 10 - Orbit

View from above orbital plane
View from above orbital plane
View from above satellite
View from above satellite

Ground track
Ground track

The orbit data is extracted from the following two-line orbital elements,

1 01430U 65051A   16144.11670370  .00000028  00000-0  21460-4 0  9993
2 01430  98.0968 312.4084 0056446 357.6403   2.4511 14.40145376666955
Epoch (UTC): 23 May 2016 02:48:03
Eccentricity: 0.0056446
inclination: 98.0968°
perigee height: 718 km
apogee height: 798 km
right ascension of ascending node: 312.4084°
argument of perigee: 357.6403°
revolutions per day: 14.40145376
mean anomaly at epoch: 2.4511°
orbit number at epoch: 66695

The dashed part of the orbit path shows where the satellite is in the earth's shadow,  

DLR